contact:dominique.lefevre@mio.osupytheas.fr, maurice.libes@osupytheas.fr, didier.mallarino@osupytheas.fr
Project:EMSO http://www.emso-fr.org/EMSO-France
Depth: 2436.0 m
Title:EMSO Ligure Ouest : Data MII capteur MICROCAT
DateTime_Computer,Latitude,Longitude,Temperature,Conductivity,Pressure,DateTime_Instrument
DateTime_Computer,Latitude,Longitude,degC,S m-1,dbar,DateTime_Instrument
2022-06-07T00:02:19Z,42.805,6.029,13.3000,4.60033,2470.717,2022-6-07T02:04:01Z
2022-06-07T00:05:22Z,42.805,6.029,13.3000,4.60032,2470.703,2022-6-07T02:07:05Z
2022-06-07T00:08:25Z,42.805,6.029,13.3002,4.60034,2470.74,2022-6-07T02:10:08Z
2022-06-07T00:11:28Z,42.805,6.029,13.3003,4.60032,2470.717,2022-6-07T02:13:11Z
2022-06-07T00:14:31Z,42.805,6.029,13.3000,4.60032,2470.693,2022-6-07T02:16:14Z
2022-06-07T00:17:34Z,42.805,6.029,13.3001,4.60033,2470.74,2022-6-07T02:19:17Z
2022-06-07T00:20:37Z,42.805,6.029,13.3004,4.60032,2470.717,2022-6-07T02:22:20Z
2022-06-07T00:23:41Z,42.805,6.029,13.2998,4.60033,2470.73,2022-6-07T02:25:23Z
2022-06-07T00:26:44Z,42.805,6.029,13.3004,4.60033,2470.74,2022-6-07T02:28:26Z
2022-06-07T00:29:47Z,42.805,6.029,13.3004,4.60033,2470.73,2022-6-07T02:31:30Z
2022-06-07T00:32:50Z,42.805,6.029,13.3004,4.60031,2470.74,2022-6-07T02:34:33Z
2022-06-07T00:35:53Z,42.805,6.029,13.2998,4.60032,2470.74,2022-6-07T02:37:36Z
2022-06-07T00:38:56Z,42.805,6.029,13.2998,4.60033,2470.763,2022-6-07T02:40:39Z
2022-06-07T00:41:59Z,42.805,6.029,13.2999,4.60033,2470.717,2022-6-07T02:43:42Z
2022-06-07T00:45:02Z,42.805,6.029,13.3002,4.60032,2470.693,2022-6-07T02:46:45Z
2022-06-07T00:48:06Z,42.805,6.029,13.3000,4.60033,2470.67,2022-6-07T02:49:48Z
2022-06-07T00:51:09Z,42.805,6.029,13.3002,4.60033,2470.717,2022-6-07T02:52:51Z
2022-06-07T00:54:12Z,42.805,6.029,13.3001,4.60033,2470.717,2022-6-07T02:55:54Z
2022-06-07T00:57:15Z,42.805,6.029,13.3002,4.60033,2470.717,2022-6-07T02:58:58Z
2022-06-07T01:00:18Z,42.805,6.029,13.2998,4.60033,2470.717,2022-6-07T03:02:01Z
2022-06-07T01:03:21Z,42.805,6.029,13.2999,4.60033,2470.763,2022-6-07T03:05:04Z
2022-06-07T01:06:24Z,42.805,6.029,13.3006,4.60033,2470.73,2022-6-07T03:08:07Z
2022-06-07T01:09:27Z,42.805,6.029,13.3000,4.60036,2470.74,2022-6-07T03:11:10Z
2022-06-07T01:12:30Z,42.805,6.029,13.3002,4.60034,2470.693,2022-6-07T03:14:13Z
2022-06-07T01:15:34Z,42.805,6.029,13.3000,4.60033,2470.717,2022-6-07T03:17:16Z
2022-06-07T01:18:37Z,42.805,6.029,13.3000,4.60033,2470.717,2022-6-07T03:20:19Z
2022-06-07T01:21:40Z,42.805,6.029,13.3001,4.60032,2470.717,2022-6-07T03:23:23Z
2022-06-07T01:24:43Z,42.805,6.029,13.3000,4.60032,2470.754,2022-6-07T03:26:26Z
2022-06-07T01:27:46Z,42.805,6.029,13.3001,4.60033,2470.73,2022-6-07T03:29:29Z
2022-06-07T01:30:49Z,42.805,6.029,13.3001,4.60034,2470.717,2022-6-07T03:32:32Z
2022-06-07T01:33:52Z,42.805,6.029,13.3000,4.60036,2470.717,2022-6-07T03:35:35Z
2022-06-07T01:36:55Z,42.805,6.029,13.2999,4.60032,2470.754,2022-6-07T03:38:38Z
2022-06-07T01:39:58Z,42.805,6.029,13.3000,4.60033,2470.717,2022-6-07T03:41:41Z
2022-06-07T01:43:02Z,42.805,6.029,13.3000,4.60033,2470.707,2022-6-07T03:44:44Z
2022-06-07T01:46:05Z,42.805,6.029,13.3003,4.60032,2470.73,2022-6-07T03:47:47Z
2022-06-07T01:49:08Z,42.805,6.029,13.2996,4.60033,2470.717,2022-6-07T03:50:51Z
2022-06-07T01:52:11Z,42.805,6.029,13.3000,4.60034,2470.693,2022-6-07T03:53:54Z
2022-06-07T01:55:14Z,42.805,6.029,13.3004,4.60033,2470.73,2022-6-07T03:56:57Z
2022-06-07T01:58:17Z,42.805,6.029,13.3004,4.60032,2470.684,2022-6-07T04:00:00Z
2022-06-07T02:01:20Z,42.805,6.029,13.3000,4.60034,2470.717,2022-6-07T04:03:03Z
2022-06-07T02:04:23Z,42.805,6.029,13.3004,4.60033,2470.717,2022-6-07T04:06:06Z
2022-06-07T02:07:26Z,42.805,6.029,13.3003,4.60034,2470.717,2022-6-07T04:09:09Z
2022-06-07T02:10:30Z,42.805,6.029,13.3003,4.60033,2470.717,2022-6-07T04:12:12Z
2022-06-07T02:13:33Z,42.805,6.029,13.3006,4.60033,2470.717,2022-6-07T04:15:15Z
2022-06-07T02:16:36Z,42.805,6.029,13.3000,4.60034,2470.717,2022-6-07T04:18:19Z
2022-06-07T02:19:39Z,42.805,6.029,13.2999,4.60035,2470.693,2022-6-07T04:21:22Z
2022-06-07T02:22:42Z,42.805,6.029,13.2998,4.60033,2470.73,2022-6-07T04:24:25Z
2022-06-07T02:25:45Z,42.805,6.029,13.3001,4.60033,2470.693,2022-6-07T04:27:28Z
2022-06-07T02:28:48Z,42.805,6.029,13.2998,4.60035,2470.74,2022-6-07T04:30:31Z
2022-06-07T02:31:51Z,42.805,6.029,13.3004,4.60034,2470.74,2022-6-07T04:33:34Z
2022-06-07T02:34:55Z,42.805,6.029,13.2999,4.60034,2470.684,2022-6-07T04:36:37Z
2022-06-07T02:37:58Z,42.805,6.029,13.3001,4.60033,2470.73,2022-6-07T04:39:40Z
2022-06-07T02:41:01Z,42.805,6.029,13.3002,4.60033,2470.693,2022-6-07T04:42:44Z
2022-06-07T02:44:04Z,42.805,6.029,13.3002,4.60033,2470.703,2022-6-07T04:45:47Z
2022-06-07T02:47:07Z,42.805,6.029,13.3004,4.60036,2470.73,2022-6-07T04:48:50Z
2022-06-07T02:50:10Z,42.805,6.029,13.3000,4.60033,2470.707,2022-6-07T04:51:53Z
2022-06-07T02:53:13Z,42.805,6.029,13.2998,4.60033,2470.67,2022-6-07T04:54:56Z
2022-06-07T02:56:16Z,42.805,6.029,13.3002,4.60032,2470.703,2022-6-07T04:57:59Z
2022-06-07T02:59:20Z,42.805,6.029,13.3000,4.60034,2470.693,2022-6-07T05:01:02Z
2022-06-07T03:02:23Z,42.805,6.029,13.3001,4.60034,2470.707,2022-6-07T05:04:05Z
2022-06-07T03:05:26Z,42.805,6.029,13.3002,4.60033,2470.67,2022-6-07T05:07:08Z
2022-06-07T03:08:29Z,42.805,6.029,13.3004,4.60034,2470.707,2022-6-07T05:10:12Z
2022-06-07T03:11:32Z,42.805,6.029,13.3004,4.60032,2470.707,2022-6-07T05:13:15Z
2022-06-07T03:14:35Z,42.805,6.029,13.3001,4.60032,2470.693,2022-6-07T05:16:18Z
2022-06-07T03:17:38Z,42.805,6.029,13.3002,4.60037,2470.693,2022-6-07T05:19:21Z
2022-06-07T03:20:41Z,42.805,6.029,13.2999,4.60033,2470.679,2022-6-07T05:22:24Z
2022-06-07T03:23:44Z,42.805,6.029,13.3001,4.60033,2470.646,2022-6-07T05:25:27Z
2022-06-07T03:26:48Z,42.805,6.029,13.2998,4.60034,2470.684,2022-6-07T05:28:30Z
2022-06-07T03:29:51Z,42.805,6.029,13.3002,4.60033,2470.67,2022-6-07T05:31:33Z
2022-06-07T03:32:54Z,42.805,6.029,13.3004,4.60033,2470.693,2022-6-07T05:34:37Z
2022-06-07T03:35:57Z,42.805,6.029,13.3001,4.60033,2470.693,2022-6-07T05:37:40Z
2022-06-07T03:39:00Z,42.805,6.029,13.3001,4.60032,2470.67,2022-6-07T05:40:43Z
2022-06-07T03:42:03Z,42.805,6.029,13.2999,4.60034,2470.717,2022-6-07T05:43:46Z
2022-06-07T03:45:06Z,42.805,6.029,13.2998,4.60033,2470.646,2022-6-07T05:46:49Z
2022-06-07T03:48:09Z,42.805,6.029,13.2999,4.60034,2470.67,2022-6-07T05:49:52Z
2022-06-07T03:51:13Z,42.805,6.029,13.3000,4.60033,2470.67,2022-6-07T05:52:55Z
2022-06-07T03:54:16Z,42.805,6.029,13.3000,4.60035,2470.67,2022-6-07T05:55:58Z
2022-06-07T03:57:19Z,42.805,6.029,13.3000,4.60032,2470.693,2022-6-07T05:59:02Z
2022-06-07T04:00:22Z,42.805,6.029,13.3001,4.60033,2470.67,2022-6-07T06:02:05Z
2022-06-07T04:03:25Z,42.805,6.029,13.2998,4.60033,2470.67,2022-6-07T06:05:08Z
2022-06-07T04:06:28Z,42.805,6.029,13.3000,4.60034,2470.67,2022-6-07T06:08:11Z
2022-06-07T04:09:31Z,42.805,6.029,13.3000,4.60032,2470.684,2022-6-07T06:11:14Z
2022-06-07T04:12:34Z,42.805,6.029,13.3001,4.60032,2470.646,2022-6-07T06:14:17Z
2022-06-07T04:15:37Z,42.805,6.029,13.3000,4.60033,2470.693,2022-6-07T06:17:20Z
2022-06-07T04:18:41Z,42.805,6.029,13.3001,4.60031,2470.633,2022-6-07T06:20:23Z
2022-06-07T04:21:44Z,42.805,6.029,13.2998,4.60034,2470.67,2022-6-07T06:23:26Z
2022-06-07T04:24:47Z,42.805,6.029,13.3004,4.60034,2470.707,2022-6-07T06:26:30Z
2022-06-07T04:27:50Z,42.805,6.029,13.3000,4.60033,2470.67,2022-6-07T06:29:33Z
2022-06-07T04:30:53Z,42.805,6.029,13.3002,4.60036,2470.67,2022-6-07T06:32:36Z
2022-06-07T04:33:56Z,42.805,6.029,13.2998,4.60035,2470.646,2022-6-07T06:35:39Z
2022-06-07T04:36:59Z,42.805,6.029,13.3003,4.60033,2470.624,2022-6-07T06:38:42Z
2022-06-07T04:40:02Z,42.805,6.029,13.3003,4.60032,2470.646,2022-6-07T06:41:45Z
2022-06-07T04:43:05Z,42.805,6.029,13.2998,4.60033,2470.67,2022-6-07T06:44:48Z
2022-06-07T04:46:09Z,42.805,6.029,13.3000,4.60033,2470.646,2022-6-07T06:47:51Z
2022-06-07T04:49:12Z,42.805,6.029,13.3002,4.60033,2470.684,2022-6-07T06:50:54Z
2022-06-07T04:52:15Z,42.805,6.029,13.3000,4.60032,2470.646,2022-6-07T06:53:58Z
2022-06-07T04:55:18Z,42.805,6.029,13.3000,4.60033,2470.646,2022-6-07T06:57:01Z
2022-06-07T04:58:21Z,42.805,6.029,13.3002,4.60034,2470.646,2022-6-07T07:00:04Z
2022-06-07T05:01:24Z,42.805,6.029,13.3000,4.60033,2470.67,2022-6-07T07:03:07Z
2022-06-07T05:04:27Z,42.805,6.029,13.3002,4.60032,2470.646,2022-6-07T07:06:10Z
2022-06-07T05:07:30Z,42.805,6.029,13.3000,4.60034,2470.624,2022-6-07T07:09:13Z
2022-06-07T05:10:34Z,42.805,6.029,13.3004,4.60033,2470.624,2022-6-07T07:12:16Z
2022-06-07T05:13:37Z,42.805,6.029,13.3001,4.60033,2470.661,2022-6-07T07:15:19Z
2022-06-07T05:16:40Z,42.805,6.029,13.3000,4.60032,2470.637,2022-6-07T07:18:23Z
2022-06-07T05:19:43Z,42.805,6.029,13.3001,4.60033,2470.637,2022-6-07T07:21:26Z
2022-06-07T05:22:46Z,42.805,6.029,13.3003,4.60036,2470.661,2022-6-07T07:24:29Z
2022-06-07T05:25:49Z,42.805,6.029,13.3004,4.60039,2470.661,2022-6-07T07:27:32Z
2022-06-07T05:28:52Z,42.805,6.029,13.3001,4.60039,2470.624,2022-6-07T07:30:35Z
2022-06-07T05:31:55Z,42.805,6.029,13.3000,4.60035,2470.624,2022-6-07T07:33:38Z
2022-06-07T05:34:58Z,42.805,6.029,13.2998,4.60035,2470.661,2022-6-07T07:36:41Z
2022-06-07T05:38:02Z,42.805,6.029,13.3005,4.60036,2470.624,2022-6-07T07:39:44Z
2022-06-07T05:41:05Z,42.805,6.029,13.3001,4.60032,2470.646,2022-6-07T07:42:47Z
2022-06-07T05:44:08Z,42.805,6.029,13.2999,4.60032,2470.614,2022-6-07T07:45:51Z
2022-06-07T05:47:11Z,42.805,6.029,13.2998,4.60034,2470.661,2022-6-07T07:48:54Z
2022-06-07T05:50:14Z,42.805,6.029,13.3004,4.60032,2470.624,2022-6-07T07:51:57Z
2022-06-07T05:53:17Z,42.805,6.029,13.3000,4.60032,2470.661,2022-6-07T07:55:00Z
2022-06-07T05:56:20Z,42.805,6.029,13.3003,4.60034,2470.637,2022-6-07T07:58:03Z
2022-06-07T05:59:23Z,42.805,6.029,13.3001,4.60036,2470.624,2022-6-07T08:01:06Z
2022-06-07T06:02:27Z,42.805,6.029,13.3002,4.60039,2470.624,2022-6-07T08:04:09Z
2022-06-07T06:05:30Z,42.805,6.029,13.3000,4.60033,2470.614,2022-6-07T08:07:12Z
2022-06-07T06:08:33Z,42.805,6.029,13.3002,4.60034,2470.646,2022-6-07T08:10:16Z
2022-06-07T06:11:36Z,42.805,6.029,13.3004,4.60034,2470.614,2022-6-07T08:13:19Z
2022-06-07T06:14:39Z,42.805,6.029,13.3005,4.60033,2470.624,2022-6-07T08:16:22Z
2022-06-07T06:17:42Z,42.805,6.029,13.3004,4.60032,2470.6,2022-6-07T08:19:25Z
2022-06-07T06:20:45Z,42.805,6.029,13.3005,4.60032,2470.624,2022-6-07T08:22:28Z
2022-06-07T06:23:48Z,42.805,6.029,13.3000,4.60033,2470.614,2022-6-07T08:25:31Z
2022-06-07T06:26:51Z,42.805,6.029,13.3000,4.60032,2470.624,2022-6-07T08:28:34Z
2022-06-07T06:29:55Z,42.805,6.029,13.3002,4.60033,2470.6,2022-6-07T08:31:37Z
2022-06-07T06:32:58Z,42.805,6.029,13.3004,4.60031,2470.614,2022-6-07T08:34:40Z
2022-06-07T06:36:01Z,42.805,6.029,13.3008,4.60032,2470.577,2022-6-07T08:37:44Z
2022-06-07T06:39:04Z,42.805,6.029,13.3002,4.60033,2470.637,2022-6-07T08:40:47Z
2022-06-07T06:42:07Z,42.805,6.029,13.3004,4.60034,2470.577,2022-6-07T08:43:50Z
2022-06-07T06:45:10Z,42.805,6.029,13.2998,4.60036,2470.577,2022-6-07T08:46:53Z
2022-06-07T06:48:13Z,42.805,6.029,13.2998,4.60033,2470.624,2022-6-07T08:49:56Z
2022-06-07T06:51:16Z,42.805,6.029,13.3000,4.60033,2470.614,2022-6-07T08:52:59Z
2022-06-07T06:54:20Z,42.805,6.029,13.2997,4.60042,2470.6,2022-6-07T08:56:02Z
2022-06-07T06:57:23Z,42.805,6.029,13.3000,4.60035,2470.6,2022-6-07T08:59:05Z
2022-06-07T07:00:26Z,42.805,6.029,13.3001,4.60036,2470.624,2022-6-07T09:02:08Z
2022-06-07T07:03:29Z,42.805,6.029,13.2998,4.60043,2470.614,2022-6-07T09:05:12Z
2022-06-07T07:06:32Z,42.805,6.029,13.2999,4.60039,2470.661,2022-6-07T09:08:15Z
2022-06-07T07:09:35Z,42.805,6.029,13.3001,4.60039,2470.6,2022-6-07T09:11:18Z
2022-06-07T07:12:38Z,42.805,6.029,13.3004,4.60033,2470.6,2022-6-07T09:14:21Z
2022-06-07T07:15:41Z,42.805,6.029,13.3000,4.60041,2470.591,2022-6-07T09:17:24Z
2022-06-07T07:18:44Z,42.805,6.029,13.3005,4.60054,2470.6,2022-6-07T09:20:27Z
2022-06-07T07:21:48Z,42.805,6.029,13.3004,4.60072,2470.614,2022-6-07T09:23:30Z
2022-06-07T07:24:51Z,42.805,6.029,13.3004,4.60062,2470.6,2022-6-07T09:26:33Z
2022-06-07T07:27:54Z,42.805,6.029,13.3004,4.60081,2470.614,2022-6-07T09:29:37Z
2022-06-07T07:30:57Z,42.805,6.029,13.3009,4.60047,2470.577,2022-6-07T09:32:40Z
2022-06-07T07:34:00Z,42.805,6.029,13.3006,4.60050,2470.6,2022-6-07T09:35:43Z
2022-06-07T07:37:03Z,42.805,6.029,13.3007,4.60055,2470.553,2022-6-07T09:38:46Z
2022-06-07T07:40:06Z,42.805,6.029,13.3014,4.60102,2470.6,2022-6-07T09:41:49Z
2022-06-07T07:43:09Z,42.805,6.029,13.3024,4.60060,2470.567,2022-6-07T09:44:52Z
2022-06-07T07:46:13Z,42.805,6.029,13.3031,4.60049,2470.614,2022-6-07T09:47:55Z
2022-06-07T07:49:16Z,42.805,6.029,13.3021,4.60069,2470.637,2022-6-07T09:50:58Z
2022-06-07T07:52:19Z,42.805,6.029,13.3017,4.60084,2470.577,2022-6-07T09:54:02Z
2022-06-07T07:55:22Z,42.805,6.029,13.3014,4.60103,2470.577,2022-6-07T09:57:05Z
2022-06-07T07:58:25Z,42.805,6.029,13.3039,4.60127,2470.591,2022-6-07T10:00:08Z
2022-06-07T08:01:28Z,42.805,6.029,13.3024,4.60090,2470.553,2022-6-07T10:03:11Z
2022-06-07T08:04:31Z,42.805,6.029,13.3018,4.60169,2470.6,2022-6-07T10:06:14Z
2022-06-07T08:07:34Z,42.805,6.029,13.3014,4.60111,2470.577,2022-6-07T10:09:17Z
2022-06-07T08:10:37Z,42.805,6.029,13.3010,4.60108,2470.6,2022-6-07T10:12:20Z
2022-06-07T08:13:41Z,42.805,6.029,13.3009,4.60094,2470.577,2022-6-07T10:15:23Z
2022-06-07T08:16:44Z,42.805,6.029,13.3005,4.60070,2470.577,2022-6-07T10:18:27Z
2022-06-07T08:19:47Z,42.805,6.029,13.3006,4.60083,2470.577,2022-6-07T10:21:30Z
2022-06-07T08:22:50Z,42.805,6.029,13.3003,4.60081,2470.567,2022-6-07T10:24:33Z
2022-06-07T08:25:53Z,42.805,6.029,13.3003,4.60083,2470.577,2022-6-07T10:27:36Z
2022-06-07T08:28:56Z,42.805,6.029,13.3004,4.60081,2470.577,2022-6-07T10:30:39Z
2022-06-07T08:31:59Z,42.805,6.029,13.2998,4.60097,2470.614,2022-6-07T10:33:42Z
2022-06-07T08:35:02Z,42.805,6.029,13.3003,4.60119,2470.614,2022-6-07T10:36:45Z
2022-06-07T08:38:06Z,42.805,6.029,13.3004,4.60097,2470.6,2022-6-07T10:39:48Z
2022-06-07T08:41:09Z,42.805,6.029,13.2999,4.60068,2470.591,2022-6-07T10:42:51Z
2022-06-07T08:44:12Z,42.805,6.029,13.3004,4.60059,2470.577,2022-6-07T10:45:55Z
2022-06-07T08:47:15Z,42.805,6.029,13.3000,4.60052,2470.553,2022-6-07T10:48:58Z
2022-06-07T08:50:18Z,42.805,6.029,13.2999,4.60052,2470.624,2022-6-07T10:52:01Z
2022-06-07T08:53:21Z,42.805,6.029,13.3001,4.60059,2470.567,2022-6-07T10:55:04Z
2022-06-07T08:56:24Z,42.805,6.029,13.3000,4.60047,2470.6,2022-6-07T10:58:07Z
2022-06-07T08:59:27Z,42.805,6.029,13.2998,4.60046,2470.6,2022-6-07T11:01:10Z
2022-06-07T09:02:31Z,42.805,6.029,13.3000,4.60043,2470.567,2022-6-07T11:04:13Z
2022-06-07T09:05:34Z,42.805,6.029,13.3051,4.60066,2470.604,2022-6-07T11:07:16Z
2022-06-07T09:08:37Z,42.805,6.029,13.3015,4.60079,2470.577,2022-6-07T11:10:20Z
2022-06-07T09:11:40Z,42.805,6.029,13.3005,4.60082,2470.567,2022-6-07T11:13:23Z
2022-06-07T09:14:43Z,42.805,6.029,13.3043,4.60058,2470.614,2022-6-07T11:16:26Z
2022-06-07T09:17:46Z,42.805,6.029,13.3044,4.60070,2470.567,2022-6-07T11:19:29Z
2022-06-07T09:20:49Z,42.805,6.029,13.3034,4.60074,2470.591,2022-6-07T11:22:32Z
2022-06-07T09:23:52Z,42.805,6.029,13.3021,4.60058,2470.591,2022-6-07T11:25:35Z
2022-06-07T09:26:56Z,42.805,6.029,13.3041,4.60078,2470.614,2022-6-07T11:28:38Z
2022-06-07T09:29:59Z,42.805,6.029,13.3042,4.60081,2470.591,2022-6-07T11:31:41Z
2022-06-07T09:33:02Z,42.805,6.029,13.3048,4.60079,2470.577,2022-6-07T11:34:45Z
2022-06-07T09:36:05Z,42.805,6.029,13.3041,4.60064,2470.577,2022-6-07T11:37:48Z
2022-06-07T09:39:08Z,42.805,6.029,13.3039,4.60069,2470.577,2022-6-07T11:40:51Z
2022-06-07T09:42:11Z,42.805,6.029,13.3043,4.60059,2470.614,2022-6-07T11:43:54Z
2022-06-07T09:45:14Z,42.805,6.029,13.3036,4.60050,2470.6,2022-6-07T11:46:57Z
2022-06-07T09:48:17Z,42.805,6.029,13.3009,4.60062,2470.591,2022-6-07T11:50:00Z
2022-06-07T09:51:20Z,42.805,6.029,13.3009,4.60087,2470.637,2022-6-07T11:53:03Z
2022-06-07T09:54:24Z,42.805,6.029,13.3001,4.60081,2470.577,2022-6-07T11:56:06Z
2022-06-07T09:57:27Z,42.805,6.029,13.3067,4.60063,2470.6,2022-6-07T11:59:10Z
2022-06-07T10:00:30Z,42.805,6.029,13.3040,4.60078,2470.577,2022-6-07T12:02:13Z
2022-06-07T10:03:33Z,42.805,6.029,13.3010,4.60084,2470.624,2022-6-07T12:05:16Z
2022-06-07T10:06:36Z,42.805,6.029,13.3016,4.60072,2470.591,2022-6-07T12:08:19Z
2022-06-07T10:09:39Z,42.805,6.029,13.3004,4.60075,2470.637,2022-6-07T12:11:22Z
2022-06-07T10:12:42Z,42.805,6.029,13.3004,4.60075,2470.6,2022-6-07T12:14:25Z
2022-06-07T10:15:45Z,42.805,6.029,13.3002,4.60061,2470.614,2022-6-07T12:17:28Z
2022-06-07T10:18:49Z,42.805,6.029,13.3002,4.60055,2470.624,2022-6-07T12:20:31Z
2022-06-07T10:21:52Z,42.805,6.029,13.2998,4.60045,2470.591,2022-6-07T12:23:34Z
2022-06-07T10:24:55Z,42.805,6.029,13.3000,4.60053,2470.637,2022-6-07T12:26:38Z
2022-06-07T10:27:58Z,42.805,6.029,13.3001,4.60044,2470.614,2022-6-07T12:29:41Z
2022-06-07T10:31:01Z,42.805,6.029,13.2999,4.60041,2470.637,2022-6-07T12:32:44Z
2022-06-07T10:34:04Z,42.805,6.029,13.3000,4.60037,2470.67,2022-6-07T12:35:47Z
2022-06-07T10:37:07Z,42.805,6.029,13.3003,4.60039,2470.6,2022-6-07T12:38:50Z
2022-06-07T10:40:10Z,42.805,6.029,13.3003,4.60033,2470.577,2022-6-07T12:41:53Z
2022-06-07T10:43:14Z,42.805,6.029,13.3000,4.60035,2470.637,2022-6-07T12:44:56Z
2022-06-07T10:46:17Z,42.805,6.029,13.3000,4.60033,2470.637,2022-6-07T12:47:59Z
2022-06-07T10:49:20Z,42.805,6.029,13.2999,4.60033,2470.624,2022-6-07T12:51:03Z
2022-06-07T10:52:23Z,42.805,6.029,13.2998,4.60032,2470.624,2022-6-07T12:54:06Z
2022-06-07T10:55:26Z,42.805,6.029,13.2998,4.60033,2470.6,2022-6-07T12:57:09Z
2022-06-07T10:58:29Z,42.805,6.029,13.2998,4.60033,2470.624,2022-6-07T13:00:12Z
2022-06-07T11:01:32Z,42.805,6.029,13.3000,4.60033,2470.624,2022-6-07T13:03:15Z
2022-06-07T11:04:35Z,42.805,6.029,13.2999,4.60032,2470.6,2022-6-07T13:06:18Z
2022-06-07T11:07:39Z,42.805,6.029,13.3000,4.60032,2470.637,2022-6-07T13:09:21Z
2022-06-07T11:10:42Z,42.805,6.029,13.2997,4.60033,2470.614,2022-6-07T13:12:24Z
2022-06-07T11:13:45Z,42.805,6.029,13.3000,4.60033,2470.577,2022-6-07T13:15:28Z
2022-06-07T11:16:48Z,42.805,6.029,13.2998,4.60031,2470.577,2022-6-07T13:18:31Z
2022-06-07T11:19:51Z,42.805,6.029,13.2996,4.60033,2470.6,2022-6-07T13:21:34Z
2022-06-07T11:22:54Z,42.805,6.029,13.3002,4.60033,2470.6,2022-6-07T13:24:37Z
2022-06-07T11:25:57Z,42.805,6.029,13.3002,4.60033,2470.646,2022-6-07T13:27:40Z
2022-06-07T11:29:00Z,42.805,6.029,13.2998,4.60035,2470.624,2022-6-07T13:30:43Z
2022-06-07T11:32:03Z,42.805,6.029,13.2996,4.60033,2470.624,2022-6-07T13:33:46Z
2022-06-07T11:35:07Z,42.805,6.029,13.3001,4.60033,2470.624,2022-6-07T13:36:49Z
2022-06-07T11:38:10Z,42.805,6.029,13.2998,4.60035,2470.6,2022-6-07T13:39:52Z
2022-06-07T11:41:13Z,42.805,6.029,13.2998,4.60037,2470.6,2022-6-07T13:42:56Z
2022-06-07T11:44:16Z,42.805,6.029,13.3001,4.60036,2470.614,2022-6-07T13:45:59Z
2022-06-07T11:47:19Z,42.805,6.029,13.2997,4.60039,2470.624,2022-6-07T13:49:02Z
2022-06-07T11:50:22Z,42.805,6.029,13.2999,4.60035,2470.577,2022-6-07T13:52:05Z
2022-06-07T11:53:25Z,42.805,6.029,13.3003,4.60035,2470.6,2022-6-07T13:55:08Z
2022-06-07T11:56:28Z,42.805,6.029,13.2999,4.60033,2470.6,2022-6-07T13:58:11Z
2022-06-07T11:59:32Z,42.805,6.029,13.2999,4.60032,2470.6,2022-6-07T14:01:14Z
2022-06-07T12:02:35Z,42.805,6.029,13.3002,4.60033,2470.577,2022-6-07T14:04:17Z
2022-06-07T12:05:38Z,42.805,6.029,13.3000,4.60036,2470.6,2022-6-07T14:07:21Z
2022-06-07T12:08:41Z,42.805,6.029,13.3001,4.60037,2470.6,2022-6-07T14:10:24Z
2022-06-07T12:11:44Z,42.805,6.029,13.3001,4.60039,2470.614,2022-6-07T14:13:27Z
2022-06-07T12:14:47Z,42.805,6.029,13.3000,4.60036,2470.624,2022-6-07T14:16:30Z
2022-06-07T12:17:50Z,42.805,6.029,13.3000,4.60041,2470.614,2022-6-07T14:19:33Z
2022-06-07T12:20:53Z,42.805,6.029,13.3000,4.60039,2470.6,2022-6-07T14:22:36Z
2022-06-07T12:23:57Z,42.805,6.029,13.3000,4.60039,2470.614,2022-6-07T14:25:39Z
2022-06-07T12:27:00Z,42.805,6.029,13.2999,4.60034,2470.646,2022-6-07T14:28:42Z
2022-06-07T12:30:03Z,42.805,6.029,13.3000,4.60037,2470.614,2022-6-07T14:31:46Z
2022-06-07T12:33:06Z,42.805,6.029,13.2998,4.60035,2470.577,2022-6-07T14:34:49Z
2022-06-07T12:36:09Z,42.805,6.029,13.3003,4.60040,2470.6,2022-6-07T14:37:52Z
2022-06-07T12:39:12Z,42.805,6.029,13.3002,4.60034,2470.614,2022-6-07T14:40:55Z
2022-06-07T12:42:15Z,42.805,6.029,13.3000,4.60036,2470.6,2022-6-07T14:43:58Z
2022-06-07T12:45:18Z,42.805,6.029,13.3000,4.60035,2470.614,2022-6-07T14:47:01Z
2022-06-07T12:48:22Z,42.805,6.029,13.3013,4.60045,2470.6,2022-6-07T14:50:04Z
2022-06-07T12:51:25Z,42.805,6.029,13.2999,4.60038,2470.577,2022-6-07T14:53:07Z
2022-06-07T12:54:28Z,42.805,6.029,13.2997,4.60035,2470.577,2022-6-07T14:56:11Z
2022-06-07T12:57:31Z,42.805,6.029,13.3000,4.60034,2470.6,2022-6-07T14:59:14Z
2022-06-07T13:00:34Z,42.805,6.029,13.3002,4.60036,2470.6,2022-6-07T15:02:17Z
2022-06-07T13:03:37Z,42.805,6.029,13.3001,4.60036,2470.6,2022-6-07T15:05:20Z
2022-06-07T13:06:40Z,42.805,6.029,13.2999,4.60042,2470.6,2022-6-07T15:08:23Z
2022-06-07T13:09:43Z,42.805,6.029,13.3000,4.60039,2470.6,2022-6-07T15:11:26Z
2022-06-07T13:12:46Z,42.805,6.029,13.2998,4.60037,2470.637,2022-6-07T15:14:29Z
2022-06-07T13:15:50Z,42.805,6.029,13.2998,4.60034,2470.624,2022-6-07T15:17:32Z
2022-06-07T13:18:53Z,42.805,6.029,13.3004,4.60036,2470.577,2022-6-07T15:20:36Z
2022-06-07T13:21:56Z,42.805,6.029,13.3003,4.60033,2470.591,2022-6-07T15:23:39Z
2022-06-07T13:24:59Z,42.805,6.029,13.2998,4.60036,2470.637,2022-6-07T15:26:42Z
2022-06-07T13:28:02Z,42.805,6.029,13.3001,4.60034,2470.577,2022-6-07T15:29:45Z
2022-06-07T13:31:05Z,42.805,6.029,13.3002,4.60034,2470.637,2022-6-07T15:32:48Z
2022-06-07T13:34:08Z,42.805,6.029,13.2998,4.60038,2470.6,2022-6-07T15:35:51Z
2022-06-07T13:37:11Z,42.805,6.029,13.3004,4.60039,2470.6,2022-6-07T15:38:54Z
2022-06-07T13:40:15Z,42.805,6.029,13.2999,4.60037,2470.624,2022-6-07T15:41:57Z
2022-06-07T13:43:18Z,42.805,6.029,13.3000,4.60043,2470.6,2022-6-07T15:45:00Z
2022-06-07T13:46:21Z,42.805,6.029,13.3000,4.60038,2470.6,2022-6-07T15:48:04Z
2022-06-07T13:49:24Z,42.805,6.029,13.3001,4.60034,2470.591,2022-6-07T15:51:07Z
2022-06-07T13:52:27Z,42.805,6.029,13.3002,4.60034,2470.577,2022-6-07T15:54:10Z
2022-06-07T13:55:30Z,42.805,6.029,13.2997,4.60033,2470.577,2022-6-07T15:57:13Z
2022-06-07T13:58:33Z,42.805,6.029,13.3001,4.60033,2470.577,2022-6-07T16:00:16Z
2022-06-07T14:01:36Z,42.805,6.029,13.2999,4.60035,2470.577,2022-6-07T16:03:19Z
2022-06-07T14:04:40Z,42.805,6.029,13.2997,4.60033,2470.591,2022-6-07T16:06:22Z
2022-06-07T14:07:43Z,42.805,6.029,13.3002,4.60033,2470.591,2022-6-07T16:09:25Z
2022-06-07T14:10:46Z,42.805,6.029,13.3003,4.60033,2470.6,2022-6-07T16:12:29Z
2022-06-07T14:13:49Z,42.805,6.029,13.2996,4.60034,2470.577,2022-6-07T16:15:32Z
2022-06-07T14:16:52Z,42.805,6.029,13.3001,4.60032,2470.553,2022-6-07T16:18:35Z
2022-06-07T14:19:55Z,42.805,6.029,13.3001,4.60033,2470.577,2022-6-07T16:21:38Z
2022-06-07T14:22:58Z,42.805,6.029,13.2999,4.60031,2470.577,2022-6-07T16:24:41Z
2022-06-07T14:26:01Z,42.805,6.029,13.2998,4.60032,2470.577,2022-6-07T16:27:44Z
2022-06-07T14:29:05Z,42.805,6.029,13.2999,4.60031,2470.577,2022-6-07T16:30:47Z
2022-06-07T14:32:08Z,42.805,6.029,13.3000,4.60031,2470.577,2022-6-07T16:33:50Z
2022-06-07T14:35:11Z,42.805,6.029,13.3000,4.60031,2470.577,2022-6-07T16:36:54Z
2022-06-07T14:38:14Z,42.805,6.029,13.2997,4.60033,2470.553,2022-6-07T16:39:57Z
2022-06-07T14:41:17Z,42.805,6.029,13.3004,4.60031,2470.553,2022-6-07T16:43:00Z
2022-06-07T14:44:20Z,42.805,6.029,13.3000,4.60032,2470.577,2022-6-07T16:46:03Z
2022-06-07T14:47:23Z,42.805,6.029,13.3001,4.60033,2470.577,2022-6-07T16:49:06Z
2022-06-07T14:50:26Z,42.805,6.029,13.2998,4.60031,2470.591,2022-6-07T16:52:09Z
2022-06-07T14:53:29Z,42.805,6.029,13.3000,4.60031,2470.553,2022-6-07T16:55:12Z
2022-06-07T14:56:33Z,42.805,6.029,13.3000,4.60032,2470.614,2022-6-07T16:58:15Z
2022-06-07T14:59:36Z,42.805,6.029,13.2999,4.60031,2470.577,2022-6-07T17:01:18Z
2022-06-07T15:02:39Z,42.805,6.029,13.2995,4.60032,2470.577,2022-6-07T17:04:22Z
2022-06-07T15:05:42Z,42.805,6.029,13.2998,4.60031,2470.6,2022-6-07T17:07:25Z
2022-06-07T15:08:45Z,42.805,6.029,13.3000,4.60031,2470.563,2022-6-07T17:10:28Z
2022-06-07T15:11:48Z,42.805,6.029,13.2998,4.60032,2470.567,2022-6-07T17:13:31Z
2022-06-07T15:14:51Z,42.805,6.029,13.3000,4.60031,2470.591,2022-6-07T17:16:34Z